Weather History for KPGA - April, 2013

Change the Weather History Date:

Thursday, April 4, 2013

  Actual Average Record
Temperature  
Mean Temperature 62 °F -  
Max Temperature 77 °F 63 °F 85 °F (1959)
Min Temperature 48 °F 40 °F 29 °F (1971)
Degree Days  
Heating Degree Days 2    
Growing Degree Days 12 (Base 50)    
Moisture  
Dew Point 20 °F    
Average Humidity 19    
Maximum Humidity 36    
Minimum Humidity 4    
Precipitation  
Precipitation 0.00 in - - ()
Sea Level Pressure  
Sea Level Pressure 29.96 in    
Wind  
Wind Speed 4 mph (NW)    
Max Wind Speed 8 mph    
Max Gust Speed -    
Visibility 10 miles    
Events      
Averages and records for this station are not official NWS values.
T = Trace of Precipitation, MM = Missing Value Source: NWS Daily Summary

Daily Weather History Graph

Daily Weather History Graph

Search for Another Location

Airport or City:

Trip Planner

Search our weather history database for the weather conditions in past years. The results will help you decide how hot, cold, wet, or windy it might be!

Date:

Astronomy

Apr. 04, 2013 Rise Set
Actual Time 6:06 AM MST 6:51 PM MST
Civil Twilight 5:40 AM MST 7:17 PM MST
Nautical Twilight 5:09 AM MST 7:48 PM MST
Astronomical Twilight 4:37 AM MST 8:20 PM MST
Moon 2:27 AM MST (4/4) 1:21 PM MST (4/4)
Length of Visible Light 13h 36m
Length of Day
12h 44m
Waning Crescent, 32% of the Moon is Illuminated
Apr 4
Waning Crescent
Apr 10
New
Apr 18
First Quarter
Apr 25
Full
May 2
Last Quarter

Hourly Weather History & Observations

Time (MST) Temp. Dew Point Humidity Pressure Visibility Wind Dir Wind Speed Gust Speed Precip Events Conditions
12:53 AM 53.1 °F 21.0 °F 29% 30.02 in 10.0 mi SSW 3.5 mph - N/A   Clear
1:53 AM 53.1 °F 21.0 °F 29% 30.03 in 10.0 mi WSW 4.6 mph - N/A   Clear
2:53 AM 55.0 °F 21.0 °F 27% 30.02 in 10.0 mi West 3.5 mph - N/A   Clear
3:53 AM 53.1 °F 23.0 °F 31% 30.03 in 10.0 mi Calm Calm - N/A   Clear
4:53 AM 50.0 °F 21.0 °F 32% 30.04 in 10.0 mi Calm Calm - N/A   Clear
5:53 AM 48.9 °F 23.0 °F 36% 30.05 in 10.0 mi SSW 3.5 mph - N/A   Clear
6:53 AM 51.1 °F 24.1 °F 35% 30.07 in 10.0 mi Calm Calm - N/A   Clear
7:53 AM 55.0 °F 23.0 °F 29% 30.08 in 10.0 mi Calm Calm - N/A   Clear
8:53 AM 57.0 °F 25.0 °F 29% 30.08 in 10.0 mi Calm Calm - N/A   Clear
9:53 AM 61.0 °F 24.1 °F 24% 30.07 in 10.0 mi Variable 4.6 mph - N/A   Clear
10:53 AM 64.0 °F 21.9 °F 20% 30.05 in 10.0 mi North 3.5 mph - N/A   Clear
11:53 AM 66.9 °F 21.9 °F 18% 30.02 in 10.0 mi NE 6.9 mph - N/A   Clear
12:53 PM 69.1 °F 21.9 °F 17% 29.99 in 10.0 mi North 8.1 mph - N/A   Clear
1:53 PM 73.0 °F 19.9 °F 14% 29.94 in 10.0 mi NNE 6.9 mph - N/A   Clear
2:53 PM 75.0 °F 19.0 °F 12% 29.90 in 10.0 mi NE 8.1 mph - N/A   Clear
3:53 PM 75.0 °F 16.0 °F 11% 29.88 in 10.0 mi NE 6.9 mph - N/A   Clear
4:53 PM 75.9 °F 14.0 °F 10% 29.87 in 10.0 mi NE 8.1 mph - N/A   Clear
5:53 PM 75.0 °F 15.1 °F 10% 29.86 in 10.0 mi NNE 6.9 mph - N/A   Clear
6:53 PM 71.1 °F 16.0 °F 12% 29.85 in 10.0 mi North 4.6 mph - N/A   Clear
7:53 PM 66.9 °F 18.0 °F 15% 29.85 in 10.0 mi Calm Calm - N/A   Clear
8:53 PM 66.9 °F 17.1 °F 15% 29.86 in 10.0 mi SW 4.6 mph - N/A   Clear
9:53 PM 66.9 °F 17.1 °F 15% 29.85 in 10.0 mi SSW 6.9 mph - N/A   Clear
10:53 PM 66.9 °F 18.0 °F 15% 29.84 in 10.0 mi SW 4.6 mph - N/A   Clear
11:53 PM 66.9 °F 18.0 °F 15% 29.83 in 10.0 mi WSW 4.6 mph - N/A   Clear